Aircraft CS-LTQ Data
= 1024"
:style="isLargeScreen ? 'max-height: calc(100vh - 6rem); overflow-y: auto;' : ''">
1
aircraft record found
CS-LTQ
2021 Cessna 680A Citation Latitude, c/n 680A-0283
Latest photos of CS-LTQ
Recent Routes
NO LIVE DATA
| Time | Callsign | FL | Speed | Heading | Route |
|---|---|---|---|---|---|
| 2026-09-03 16:56 UTC | NJE468Y | FL11 | 126 kt | 19° | — |
| 2026-09-03 13:06 UTC | NJE862M | — | 2 kt | 340° | — |
| 2026-09-03 10:34 UTC | NJE272D | FL12 | 112 kt | 307° | — |
| 2026-09-03 07:30 UTC | NJE326W | FL197 | 409 kt | 151° | — |
| 2026-09-02 18:38 UTC | NJE8PQ | FL13 | 112 kt | 157° | — |
| 2026-09-02 16:18 UTC | NJE259A | — | 15 kt | 42° | — |
| 2026-09-02 12:44 UTC | NJE716B | FL-2 | 93 kt | 66° | — |
| 2026-09-02 08:48 UTC | NJE572C | FL13 | 183 kt | 225° | — |
| 2026-09-01 18:54 UTC | NJE233D | — | 17 kt | 267° | — |
| 2026-09-01 16:22 UTC | NJE184F | — | 7 kt | 172° | — |
| 2026-09-01 13:22 UTC | NJE387Q | — | 8 kt | 312° | — |
| 2026-09-01 11:44 UTC | NJE600C | — | 0 kt | 270° | — |
| 2026-08-31 20:16 UTC | NJE037T | — | 0 kt | 340° | — |
| 2026-08-31 16:26 UTC | NJE698E | FL19 | 182 kt | 239° | — |
| 2026-08-31 14:04 UTC | NJE402E | FL21 | 157 kt | 266° | — |
| 2026-08-31 08:50 UTC | NJE725N | FL110 | 225 kt | 122° | — |
| 2026-08-30 14:08 UTC | NJE923N | — | 34 kt | 352° | — |
| 2026-08-30 10:40 UTC | NJE998P | FL52 | 4 kt | 172° | — |
| 2026-08-29 11:56 UTC | NJE506Q | — | 12 kt | 118° | — |
| 2026-08-29 08:48 UTC | NJE623U | FL19 | 112 kt | 328° | — |
| 2026-08-28 16:08 UTC | NJE324V | — | 4 kt | 93° | — |
| 2026-08-28 12:30 UTC | NJE496T | FL40 | 225 kt | 206° | — |
| 2026-08-27 15:48 UTC | NJE385U | — | 7 kt | 245° | — |
| 2026-08-27 14:32 UTC | NJE788Y | — | 0 kt | 104° | — |
| 2026-08-27 11:58 UTC | NJE702R | FL5 | 0 kt | 295° | — |
| 2026-08-26 13:00 UTC | NJE518D | FL2 | 115 kt | 242° | — |
| 2026-08-25 13:16 UTC | NJE665G | — | 13 kt | 124° | — |
| 2026-08-24 15:10 UTC | NJE171E | — | 15 kt | 217° | — |
| 2026-08-24 10:52 UTC | NJE053D | FL2 | 125 kt | 243° | — |
| 2026-08-22 14:36 UTC | NJE016H | — | 6 kt | 281° | — |
| 2026-08-22 11:50 UTC | NJE822A | — | 8 kt | 146° | — |
| 2026-08-21 21:04 UTC | NJE299E | FL142 | 324 kt | 25° | — |
| 2026-08-21 14:10 UTC | NJE339Q | FL4 | 99 kt | 264° | — |
| 2026-08-21 12:04 UTC | NJE947K | — | 3 kt | 186° | — |
| 2026-08-21 10:12 UTC | NJE550P | — | 0 kt | 276° | — |
| 2026-08-20 15:32 UTC | NJE709R | FL16 | 137 kt | 188° | — |
| 2026-08-20 12:36 UTC | NJE067P | FL3 | 107 kt | 344° | — |
| 2026-08-20 09:14 UTC | NJE064L | — | 19 kt | 270° | — |
| 2026-08-19 16:54 UTC | NJE393F | FL7 | 93 kt | 266° | — |
| 2026-08-19 13:40 UTC | NJE717R | FL6 | 118 kt | 42° | — |
| 2026-08-19 09:18 UTC | NJE760K | — | 9 kt | 338° | — |
| 2026-08-19 05:34 UTC | NJE496L | FL106 | 265 kt | 237° | — |
| 2026-08-18 14:42 UTC | NJE299N | FL15 | 102 kt | 356° | — |
| 2026-08-18 13:12 UTC | NJE350B | FL37 | 199 kt | 63° | — |
| 2026-08-18 10:44 UTC | NJE374C | FL13 | 0 kt | 152° | — |
| 2026-08-17 15:28 UTC | NJE018P | — | 8 kt | 68° | — |
| 2026-08-17 10:32 UTC | NJE032W | — | 7 kt | 256° | — |
| 2026-08-16 17:48 UTC | NJE004G | FL3 | 107 kt | 265° | — |
| 2026-08-16 15:04 UTC | NJE603Y | — | 3 kt | 132° | — |
| 2026-08-16 11:34 UTC | NJE520A | FL6 | 108 kt | 237° | — |
| 2026-08-16 08:28 UTC | NJE118N | — | 10 kt | 82° | — |
| 2026-08-15 15:18 UTC | NJE157L | — | 15 kt | 48° | — |
| 2026-08-15 11:44 UTC | NJE104D | FL6 | 117 kt | 238° | — |
| 2026-08-15 09:32 UTC | NJE451H | — | 1 kt | 163° | — |
| 2026-08-14 18:50 UTC | NJE538U | — | 12 kt | 118° | — |
| 2026-08-14 17:14 UTC | NJE195W | FL25 | 126 kt | 267° | — |
| 2026-08-14 12:48 UTC | NJE594R | FL78 | 222 kt | 54° | — |
| 2026-08-14 10:48 UTC | NJE279E | — | 2 kt | 135° | — |
| 2026-08-13 17:32 UTC | NJE476K | — | 17 kt | 225° | — |
| 2026-08-13 12:52 UTC | NJE553N | FL1 | 94 kt | 344° | — |
| 2026-08-13 09:12 UTC | NJE943Y | — | 9 kt | 194° | — |
| 2026-08-12 17:34 UTC | NJE582P | — | 0 kt | 245° | — |
| 2026-08-12 09:48 UTC | NJE334H | — | 15 kt | 284° | — |
| 2026-08-12 07:40 UTC | NJE980B | — | 0 kt | 315° | — |
| 2026-08-11 10:38 UTC | NJE587L | — | 0 kt | 188° | — |
| 2026-08-09 12:16 UTC | NJE923G | FL2 | 110 kt | 266° | — |
| 2026-08-09 08:36 UTC | NJE684Q | — | 3 kt | 259° | — |
| 2026-08-08 16:52 UTC | NJE255G | FL5 | 105 kt | 152° | — |
| 2026-08-08 12:58 UTC | NJE423A | — | 2 kt | 323° | — |
| 2026-08-08 10:18 UTC | NJE075H | FL3 | 109 kt | 327° | — |
| 2026-08-07 15:40 UTC | NJE938V | FL59 | 178 kt | 196° | — |
Live location data from OpenSky Network
Airframe Info
| Manufacturer | Cessna |
| Model | 680A Citation Latitude Search all Cessna 680A Citation Latitude |
| Year built | 2021 |
| Construction Number (C/N) | 680A-0283 |
| Aircraft Type | Fixed wing multi engine |
| Number of Seats | 11 |
| Number of Engines | 2 |
| Engine Type | Turbofan |
| Engine Manufacturer and Model | Pratt & Whitney Canada PW 306D1 |
Aircraft
| Registration Number | CS-LTQ |
| Mode S (ICAO24) Code | 493291 |
| Current Status | Registered |
Owner
| Owner | NetJets Europe |
| Address |
, Portugal |